Time,TemperatureF,DewpointF,PressureIn,WindDirection,WindDirectionDegrees,WindSpeedMPH,WindSpeedGustMPH,Humidity,HourlyPrecipIn,Conditions,Clouds,dailyrainin,SolarRadiationWatts/m^2,SoftwareType,DateUTC
2013-01-19 00:02:00,26.0,16.0,-100.00,ESE,119,2.0,8.0,65,0.00,,,-99.99,0.000000,,2013-01-19 07:02:00,
2013-01-19 00:12:00,26.0,16.0,-100.00,ESE,119,2.0,8.0,65,0.00,,,-99.99,0.000000,,2013-01-19 07:12:00,
2013-01-19 00:33:00,20.0,13.0,-100.00,NNE,13,1.0,9.0,73,0.00,,,0.00,0.000000,,2013-01-19 07:33:00,
2013-01-19 00:43:00,20.0,13.0,-100.00,NNE,13,1.0,9.0,73,0.00,,,0.00,0.000000,,2013-01-19 07:43:00,
2013-01-19 00:52:00,20.0,13.0,-100.00,NNE,13,1.0,9.0,73,0.00,,,0.00,0.000000,,2013-01-19 07:52:00,
2013-01-19 01:02:00,20.0,13.0,-100.00,NNE,13,1.0,9.0,73,0.00,,,0.00,0.000000,,2013-01-19 08:02:00,
2013-01-19 01:12:00,20.0,13.0,-100.00,NNE,13,1.0,9.0,73,0.00,,,0.00,0.000000,,2013-01-19 08:12:00,
2013-01-19 01:33:00,21.0,16.0,-100.00,SE,136,3.0,6.0,79,0.00,,,0.00,0.000000,,2013-01-19 08:33:00,
2013-01-19 01:43:00,21.0,16.0,-100.00,SE,136,3.0,6.0,79,0.00,,,0.00,0.000000,,2013-01-19 08:43:00,
2013-01-19 01:53:00,21.0,16.0,-100.00,SE,136,3.0,6.0,79,0.00,,,0.00,0.000000,,2013-01-19 08:53:00,
2013-01-19 02:02:00,21.0,16.0,-100.00,SE,136,3.0,6.0,79,0.00,,,0.00,0.000000,,2013-01-19 09:02:00,
2013-01-19 02:12:00,21.0,16.0,-100.00,SE,136,3.0,6.0,79,0.00,,,0.00,0.000000,,2013-01-19 09:12:00,
2013-01-19 02:33:00,19.0,15.0,-100.00,SSE,166,2.0,6.0,83,0.00,,,0.00,0.000000,,2013-01-19 09:33:00,
2013-01-19 02:43:00,19.0,15.0,-100.00,SSE,166,2.0,6.0,83,0.00,,,0.00,0.000000,,2013-01-19 09:43:00,
2013-01-19 02:52:00,19.0,15.0,-100.00,SSE,166,2.0,6.0,83,0.00,,,0.00,0.000000,,2013-01-19 09:52:00,
2013-01-19 03:02:00,19.0,15.0,-100.00,SSE,166,2.0,6.0,83,0.00,,,0.00,0.000000,,2013-01-19 10:02:00,
2013-01-19 03:12:00,19.0,15.0,-100.00,SSE,166,2.0,6.0,83,0.00,,,0.00,0.000000,,2013-01-19 10:12:00,
2013-01-19 03:33:00,16.0,12.0,-100.00,SW,220,2.0,5.0,85,0.00,,,0.00,0.000000,,2013-01-19 10:33:00,
2013-01-19 03:43:00,16.0,12.0,-100.00,SW,220,2.0,5.0,85,0.00,,,0.00,0.000000,,2013-01-19 10:43:00,
2013-01-19 03:53:00,16.0,12.0,-100.00,SW,220,2.0,5.0,85,0.00,,,0.00,0.000000,,2013-01-19 10:53:00,
2013-01-19 04:02:00,16.0,12.0,-100.00,SW,220,2.0,5.0,85,0.00,,,0.00,0.000000,,2013-01-19 11:02:00,
2013-01-19 04:12:00,16.0,12.0,-100.00,SW,220,2.0,5.0,85,0.00,,,0.00,0.000000,,2013-01-19 11:12:00,
2013-01-19 06:34:00,10.0,7.0,-100.00,SW,233,3.0,7.0,89,-99.99,,,-99.99,0.000000,,2013-01-19 13:34:00,
2013-01-19 07:34:00,10.0,8.0,-100.00,SE,142,3.0,7.0,90,0.00,,,0.00,0.000000,,2013-01-19 14:34:00,
2013-01-19 07:43:00,10.0,8.0,-100.00,SE,142,3.0,7.0,90,0.00,,,0.00,0.000000,,2013-01-19 14:43:00,
2013-01-19 07:53:00,10.0,8.0,-100.00,SE,142,3.0,7.0,90,0.00,,,0.00,0.000000,,2013-01-19 14:53:00,
2013-01-19 08:03:00,10.0,8.0,-100.00,SE,142,3.0,7.0,90,0.00,,,0.00,0.000000,,2013-01-19 15:03:00,
2013-01-19 08:12:00,10.0,8.0,-100.00,SE,142,3.0,7.0,90,0.00,,,0.00,0.000000,,2013-01-19 15:12:00,
2013-01-19 08:43:00,10.0,8.0,-100.00,SSE,168,3.0,7.0,90,-99.99,,,0.00,1.000000,,2013-01-19 15:43:00,
2013-01-19 08:53:00,10.0,8.0,-100.00,SSE,168,3.0,7.0,90,-99.99,,,0.00,1.000000,,2013-01-19 15:53:00,
2013-01-19 09:02:00,10.0,8.0,-100.00,SSE,168,3.0,7.0,90,-99.99,,,0.00,1.000000,,2013-01-19 16:02:00,
2013-01-19 09:12:00,10.0,8.0,-100.00,SSE,168,3.0,7.0,90,-99.99,,,0.00,1.000000,,2013-01-19 16:12:00,
2013-01-19 09:33:00,13.0,10.0,-100.00,West,274,3.0,8.0,87,0.00,,,0.00,48.000000,,2013-01-19 16:33:00,
2013-01-19 09:43:00,13.0,10.0,-100.00,West,274,3.0,8.0,87,0.00,,,0.00,48.000000,,2013-01-19 16:43:00,
2013-01-19 09:54:00,13.0,10.0,-100.00,West,274,3.0,8.0,87,0.00,,,0.00,48.000000,,2013-01-19 16:54:00,
2013-01-19 10:02:00,13.0,10.0,-100.00,West,274,3.0,8.0,87,0.00,,,0.00,48.000000,,2013-01-19 17:02:00,
2013-01-19 10:13:00,13.0,10.0,-100.00,West,274,3.0,8.0,87,0.00,,,0.00,48.000000,,2013-01-19 17:13:00,
2013-01-19 10:54:00,20.0,14.0,-100.00,NE,43,3.0,6.0,77,0.00,,,-99.99,196.000000,,2013-01-19 17:54:00,
2013-01-19 11:04:00,20.0,14.0,-100.00,NE,43,3.0,6.0,77,0.00,,,-99.99,196.000000,,2013-01-19 18:04:00,
2013-01-19 11:12:00,20.0,14.0,-100.00,NE,43,3.0,6.0,77,0.00,,,-99.99,196.000000,,2013-01-19 18:12:00,
2013-01-19 11:46:00,26.0,14.0,-100.00,NE,39,3.0,6.0,59,0.00,,,0.00,361.000000,,2013-01-19 18:46:00,
2013-01-19 11:59:00,26.0,14.0,-100.00,NE,39,3.0,6.0,59,0.00,,,0.00,361.000000,,2013-01-19 18:59:00,
2013-01-19 12:04:00,26.0,14.0,-100.00,NE,39,3.0,6.0,59,0.00,,,0.00,361.000000,,2013-01-19 19:04:00,
2013-01-19 12:12:00,26.0,14.0,-100.00,NE,39,3.0,6.0,59,0.00,,,0.00,361.000000,,2013-01-19 19:12:00,
2013-01-19 12:49:00,32.0,20.0,-100.00,NE,43,3.0,6.0,61,0.00,,,0.00,413.000000,,2013-01-19 19:49:00,
2013-01-19 12:55:00,32.0,20.0,-100.00,NE,43,3.0,6.0,61,0.00,,,0.00,413.000000,,2013-01-19 19:55:00,
2013-01-19 13:07:00,32.0,20.0,-100.00,NE,43,3.0,6.0,61,0.00,,,0.00,413.000000,,2013-01-19 20:07:00,
2013-01-19 13:39:00,31.0,17.0,-100.00,East,83,3.0,5.0,55,0.00,,,0.00,363.000000,,2013-01-19 20:39:00,
2013-01-19 13:50:00,31.0,17.0,-100.00,East,83,3.0,5.0,55,0.00,,,0.00,363.000000,,2013-01-19 20:50:00,
2013-01-19 13:56:00,31.0,17.0,-100.00,East,83,3.0,5.0,55,0.00,,,0.00,363.000000,,2013-01-19 20:56:00,
2013-01-19 14:04:00,31.0,17.0,-100.00,East,83,3.0,5.0,55,0.00,,,0.00,363.000000,,2013-01-19 21:04:00,
2013-01-19 14:13:00,31.0,17.0,-100.00,East,83,3.0,5.0,55,0.00,,,0.00,363.000000,,2013-01-19 21:13:00,
2013-01-19 14:14:00,37.0,21.0,-100.00,NNW,335,2.0,5.0,51,0.00,,,0.00,366.000000,,2013-01-19 21:14:00,
2013-01-19 14:53:00,37.0,21.0,-100.00,NNW,335,2.0,5.0,51,0.00,,,0.00,366.000000,,2013-01-19 21:53:00,
2013-01-19 15:48:00,37.0,16.0,-100.00,SE,127,4.0,6.0,42,0.00,,,0.00,430.000000,,2013-01-19 22:48:00,
2013-01-19 15:57:00,37.0,16.0,-100.00,SE,127,4.0,6.0,42,0.00,,,0.00,430.000000,,2013-01-19 22:57:00,
2013-01-19 16:08:00,37.0,16.0,-100.00,SE,127,4.0,6.0,42,0.00,,,0.00,430.000000,,2013-01-19 23:08:00,
2013-01-19 16:13:00,37.0,16.0,-100.00,SE,127,4.0,6.0,42,0.00,,,0.00,430.000000,,2013-01-19 23:13:00,
2013-01-19 16:35:00,33.0,17.0,-100.00,NNE,21,3.0,6.0,52,0.00,,,0.00,184.000000,,2013-01-19 23:35:00,
2013-01-19 16:49:00,33.0,17.0,-100.00,NNE,21,3.0,6.0,52,0.00,,,0.00,184.000000,,2013-01-19 23:49:00,
2013-01-19 17:04:00,33.0,17.0,-100.00,NNE,21,3.0,6.0,52,0.00,,,0.00,184.000000,,2013-01-20 00:04:00,
2013-01-19 17:12:00,33.0,17.0,-100.00,NNE,21,3.0,6.0,52,0.00,,,0.00,184.000000,,2013-01-20 00:12:00,
2013-01-19 17:38:00,26.0,14.0,-100.00,NNE,27,2.0,5.0,61,0.00,,,0.00,89.000000,,2013-01-20 00:38:00,
2013-01-19 17:47:00,26.0,14.0,-100.00,NNE,27,2.0,5.0,61,0.00,,,0.00,89.000000,,2013-01-20 00:47:00,
2013-01-19 17:55:00,26.0,14.0,-100.00,NNE,27,2.0,5.0,61,0.00,,,0.00,89.000000,,2013-01-20 00:55:00,
2013-01-19 18:03:00,26.0,14.0,-100.00,NNE,27,2.0,5.0,61,0.00,,,0.00,89.000000,,2013-01-20 01:03:00,
2013-01-19 18:39:00,23.0,17.0,-100.00,SSE,148,4.0,7.0,76,0.00,,,0.00,3.000000,,2013-01-20 01:39:00,
2013-01-19 18:50:00,23.0,17.0,-100.00,SSE,148,4.0,7.0,76,0.00,,,0.00,3.000000,,2013-01-20 01:50:00,
2013-01-19 19:02:00,23.0,17.0,-100.00,SSE,148,4.0,7.0,76,0.00,,,0.00,3.000000,,2013-01-20 02:02:00,
2013-01-19 19:13:00,23.0,17.0,-100.00,SSE,148,4.0,7.0,76,0.00,,,0.00,3.000000,,2013-01-20 02:13:00,
2013-01-19 19:38:00,19.0,14.0,-100.00,SE,145,5.0,8.0,81,0.00,,,0.00,0.000000,,2013-01-20 02:38:00,
2013-01-19 20:05:00,19.0,14.0,-100.00,SE,145,5.0,8.0,81,0.00,,,0.00,0.000000,,2013-01-20 03:05:00,
2013-01-19 20:13:00,19.0,14.0,-100.00,SE,145,5.0,8.0,81,0.00,,,0.00,0.000000,,2013-01-20 03:13:00,
2013-01-19 20:39:00,17.0,12.0,-100.00,WSW,242,3.0,9.0,82,-99.99,,,0.00,0.000000,,2013-01-20 03:39:00,
2013-01-19 21:38:00,18.0,14.0,-100.00,ESE,112,4.0,8.0,85,-99.99,,,0.00,0.000000,,2013-01-20 04:38:00,
2013-01-19 22:33:00,17.0,13.0,-100.00,SSE,155,3.0,8.0,85,0.00,,,0.00,0.000000,,2013-01-20 05:33:00,
2013-01-19 23:33:00,16.0,13.0,-100.00,WSW,245,2.0,8.0,89,-99.99,,,0.00,0.000000,,2013-01-20 06:33:00,